Weather History for KBQK - December, 2013

Change the Weather History Date:

Tuesday, December 3, 2013

  Actual Average Record
Temperature  
Mean Temperature 56 °F -  
Max Temperature 69 °F 66 °F 82 °F (1991)
Min Temperature 44 °F 45 °F 29 °F (1944)
Degree Days  
Heating Degree Days 8    
Growing Degree Days 6 (Base 50)    
Moisture  
Dew Point 54 °F    
Average Humidity 87    
Maximum Humidity 100    
Minimum Humidity 60    
Precipitation  
Precipitation 0.00 in - - ()
Sea Level Pressure  
Sea Level Pressure 29.95 in    
Wind  
Wind Speed 2 mph (SSE)    
Max Wind Speed 10 mph    
Max Gust Speed -    
Visibility 7 miles    
Events      
Averages and records for this station are not official NWS values.
T = Trace of Precipitation, MM = Missing Value Source: NWS Daily Summary

Daily Weather History Graph

Daily Weather History Graph

Search for Another Location

Airport or City:

Trip Planner

Search our weather history database for the weather conditions in past years. The results will help you decide how hot, cold, wet, or windy it might be!

Date:

Astronomy

Dec. 03, 2013 Rise Set
Actual Time 7:08 AM EST 5:22 PM EST
Civil Twilight 6:42 AM EST 5:49 PM EST
Nautical Twilight 6:12 AM EST 6:19 PM EST
Astronomical Twilight 5:42 AM EST 6:48 PM EST
Moon 7:38 AM EST (12/3) 6:23 PM EST (12/3)
Length of Visible Light 11h 07m
Length of Day
10h 14m
New Moon, 1% of the Moon is Illuminated
Dec 3
New Moon
Dec 9
First Quarter
Dec 17
Full
Dec 25
Last Quarter
Jan 1
New

Hourly Weather History & Observations

Time (EST) Temp. Dew Point Humidity Pressure Visibility Wind Dir Wind Speed Gust Speed Precip Events Conditions
12:15 AM 46.4 °F 46.4 °F 100% 29.92 in 0.5 mi Calm Calm - N/A   Unknown
12:35 AM 46.4 °F 46.4 °F 100% 29.91 in 0.5 mi Calm Calm - N/A   Mostly Cloudy
12:55 AM 46.4 °F 46.4 °F 100% 29.91 in 1.5 mi Calm Calm - N/A   Scattered Clouds
1:15 AM 46.4 °F 46.4 °F 100% 29.92 in 0.2 mi Calm Calm - N/A   Unknown
1:35 AM 46.4 °F 44.6 °F 93% 29.92 in 0.2 mi Calm Calm - N/A   Unknown
1:55 AM 44.6 °F 44.6 °F 100% 29.92 in 0.5 mi Calm Calm - N/A   Unknown
2:15 AM 46.4 °F 46.4 °F 100% 29.92 in 0.5 mi Calm Calm - N/A   Unknown
2:35 AM 46.4 °F 44.6 °F 93% 29.92 in 0.2 mi Calm Calm - N/A   Unknown
2:55 AM 46.4 °F 46.4 °F 100% 29.92 in 1.0 mi Calm Calm - N/A   Unknown
3:15 AM 46.4 °F 46.4 °F 100% 29.92 in 2.0 mi Calm Calm - N/A   Scattered Clouds
3:35 AM 46.4 °F 46.4 °F 100% 29.90 in 1.2 mi Calm Calm - N/A   Scattered Clouds
3:55 AM 46.4 °F 46.4 °F 100% 29.90 in 0.2 mi Calm Calm - N/A   Unknown
4:15 AM 44.6 °F 44.6 °F 100% 29.91 in 0.5 mi Calm Calm - N/A   Unknown
4:35 AM 46.4 °F 46.4 °F 100% 29.91 in 0.5 mi Calm Calm - N/A   Unknown
4:55 AM 44.6 °F 44.6 °F 100% 29.92 in 7.0 mi Calm Calm - N/A   Scattered Clouds
5:15 AM 44.6 °F 44.6 °F 100% 29.92 in 0.2 mi Calm Calm - N/A   Overcast
5:35 AM 46.4 °F 46.4 °F 100% 29.93 in 0.8 mi Calm Calm - N/A   Mostly Cloudy
5:55 AM 44.6 °F 44.6 °F 100% 29.93 in 2.0 mi Calm Calm - N/A   Mostly Cloudy
6:15 AM 46.4 °F 46.4 °F 100% 29.93 in 5.0 mi Calm Calm - N/A   Overcast
6:35 AM 46.4 °F 46.4 °F 100% 29.94 in 5.0 mi Calm Calm - N/A   Mostly Cloudy
6:55 AM 46.4 °F 46.4 °F 100% 29.95 in 5.0 mi Calm Calm - N/A   Mostly Cloudy
7:15 AM 46.4 °F 46.4 °F 100% 29.95 in 7.0 mi Calm Calm - N/A   Mostly Cloudy
7:35 AM 46.4 °F 46.4 °F 100% 29.96 in 4.0 mi Calm Calm - N/A   Scattered Clouds
7:55 AM 50.0 °F 50.0 °F 100% 29.96 in 4.0 mi Calm Calm - N/A   Mostly Cloudy
8:15 AM 51.8 °F 51.8 °F 100% 29.96 in 4.0 mi Calm Calm - N/A   Mostly Cloudy
8:35 AM 55.4 °F 55.4 °F 100% 29.96 in 7.0 mi South 3.5 mph - N/A   Scattered Clouds
8:55 AM 59.0 °F 59.0 °F 100% 29.96 in 10.0 mi SSW 4.6 mph - N/A   Mostly Cloudy
9:15 AM 60.8 °F 59.0 °F 94% 29.97 in 10.0 mi South 3.5 mph - N/A   Overcast
9:35 AM 62.6 °F 59.0 °F 88% 29.99 in 10.0 mi SW 4.6 mph - N/A   Mostly Cloudy
9:55 AM 62.6 °F 59.0 °F 88% 29.99 in 10.0 mi SSW 5.8 mph - N/A   Mostly Cloudy
10:15 AM 62.6 °F 57.2 °F 82% 30.00 in 10.0 mi SW 5.8 mph - N/A   Overcast
10:35 AM 62.6 °F 57.2 °F 82% 30.00 in 10.0 mi South 5.8 mph - N/A   Overcast
10:55 AM 62.6 °F 59.0 °F 88% 29.99 in 10.0 mi South 5.8 mph - N/A   Overcast
11:15 AM 62.6 °F 57.2 °F 82% 29.99 in 10.0 mi South 4.6 mph - N/A   Overcast
11:35 AM 64.4 °F 57.2 °F 77% 29.99 in 10.0 mi SSW 4.6 mph - N/A   Overcast
11:55 AM 64.4 °F 59.0 °F 83% 29.98 in 10.0 mi SSE 3.5 mph - N/A   Mostly Cloudy
12:15 PM 68.0 °F 59.0 °F 73% 29.97 in 10.0 mi SSE 3.5 mph - N/A   Mostly Cloudy
12:35 PM 68.0 °F 57.2 °F 68% 29.95 in 10.0 mi SE 4.6 mph - N/A   Mostly Cloudy
12:55 PM 69.8 °F 57.2 °F 64% 29.95 in 10.0 mi SW 3.5 mph - N/A   Scattered Clouds
1:15 PM 69.8 °F 59.0 °F 68% 29.94 in 10.0 mi ESE 5.8 mph - N/A   Scattered Clouds
1:35 PM 69.8 °F 57.2 °F 64% 29.93 in 10.0 mi East 6.9 mph - N/A   Scattered Clouds
1:55 PM 69.8 °F 57.2 °F 64% 29.93 in 10.0 mi SSE 5.8 mph - N/A   Clear
2:15 PM 69.8 °F 55.4 °F 60% 29.92 in 10.0 mi SSE 6.9 mph - N/A   Clear
2:35 PM 69.8 °F 55.4 °F 60% 29.92 in 10.0 mi SE 6.9 mph - N/A   Clear
2:55 PM 69.8 °F 55.4 °F 60% 29.92 in 10.0 mi SE 9.2 mph - N/A   Clear
3:15 PM 68.0 °F 55.4 °F 64% 29.92 in 10.0 mi SE 10.4 mph - N/A   Clear
3:35 PM 68.0 °F 55.4 °F 64% 29.93 in 10.0 mi SSE 8.1 mph - N/A   Clear
3:55 PM 68.0 °F 55.4 °F 64% 29.92 in 10.0 mi SSE 5.8 mph - N/A   Clear
4:15 PM 66.2 °F 55.4 °F 68% 29.93 in 10.0 mi SE 6.9 mph - N/A   Clear
4:35 PM 64.4 °F 55.4 °F 73% 29.93 in 10.0 mi SE 5.8 mph - N/A   Clear
4:55 PM 62.6 °F 55.4 °F 77% 29.93 in 10.0 mi SE 3.5 mph - N/A   Clear
5:15 PM 62.6 °F 57.2 °F 82% 29.93 in 10.0 mi SE 4.6 mph - N/A   Mostly Cloudy
5:35 PM 62.6 °F 57.2 °F 82% 29.94 in 10.0 mi SE 3.5 mph - N/A   Overcast
5:55 PM 62.6 °F 57.2 °F 82% 29.94 in 10.0 mi Calm Calm - N/A   Overcast
6:15 PM 62.6 °F 57.2 °F 82% 29.94 in 10.0 mi ESE 3.5 mph - N/A   Overcast
6:35 PM 62.6 °F 57.2 °F 82% 29.95 in 10.0 mi ESE 3.5 mph - N/A   Overcast
6:55 PM 62.6 °F 57.2 °F 82% 29.95 in 10.0 mi Calm Calm - N/A   Overcast
7:15 PM 62.6 °F 57.2 °F 82% 29.96 in 10.0 mi Calm Calm - N/A   Overcast
7:35 PM 62.6 °F 57.2 °F 82% 29.96 in 10.0 mi Calm Calm - N/A   Overcast
7:55 PM 62.6 °F 57.2 °F 82% 29.97 in 10.0 mi South 3.5 mph - N/A   Overcast
8:15 PM 62.6 °F 59.0 °F 88% 29.97 in 10.0 mi SSE 3.5 mph - N/A   Overcast
8:35 PM 62.6 °F 59.0 °F 88% 29.97 in 10.0 mi South 4.6 mph - N/A   Overcast
8:55 PM 62.6 °F 59.0 °F 88% 29.98 in 10.0 mi SSE 3.5 mph - N/A   Overcast
9:15 PM 62.6 °F 59.0 °F 88% 29.97 in 10.0 mi SSE 4.6 mph - N/A   Mostly Cloudy
9:35 PM 62.6 °F 59.0 °F 88% 29.97 in 10.0 mi SSE 6.9 mph - N/A   Clear
9:55 PM 62.6 °F 59.0 °F 88% 29.98 in 10.0 mi SSE 8.1 mph - N/A   Clear
10:15 PM 62.6 °F 59.0 °F 88% 29.98 in 10.0 mi SSE 3.5 mph - N/A   Scattered Clouds
10:35 PM 62.6 °F 59.0 °F 88% 29.98 in 10.0 mi South 4.6 mph - N/A   Mostly Cloudy
10:55 PM 62.6 °F 59.0 °F 88% 29.98 in 10.0 mi South 3.5 mph - N/A   Scattered Clouds
11:15 PM 62.6 °F 59.0 °F 88% 29.99 in 10.0 mi SSW 4.6 mph - N/A   Clear
11:35 PM 62.6 °F 59.0 °F 88% 29.99 in 10.0 mi SSW 5.8 mph - N/A   Clear
11:55 PM 62.6 °F 59.0 °F 88% 29.99 in 10.0 mi SSW 4.6 mph - N/A   Clear